Weather History for West Plains, MO

Change the Weather History Date:

Monday, December 17, 2012

  Actual Average Record
Temperature  
Mean Temperature 38 °F 36 °F  
Max Temperature 47 °F 46 °F 70 °F (1962)
Min Temperature 28 °F 25 °F -5 °F (1989)
Degree Days  
Heating Degree Days 27 30  
Month to date heating degree days 308 467  
Since 1 July heating degree days 1252 1319  
Cooling Degree Days 0 0  
Month to date cooling degree days 0 0  
Year to date cooling degree days 1739 1354  
Moisture  
Dew Point 35 °F    
Average Humidity 79    
Maximum Humidity 92    
Minimum Humidity 65    
Precipitation  
Precipitation 0.00 in 0.13 in 1.96 in (2001)
Month to date precipitation 0.82 2.39  
Year to date precipitation 30.74 44.97  
Sea Level Pressure  
Sea Level Pressure 29.72 in    
Wind  
Wind Speed 7 mph (NW)    
Max Wind Speed 15 mph    
Max Gust Speed 22 mph    
Visibility 6 miles    
Events Fog    
T = Trace of Precipitation, MM = Missing Value Source: NWS Daily Summary

Daily Weather History Graph

Daily Weather History Graph

Search for Another Location

Airport:

Trip Planner

Search our weather history database for the weather conditions in past years. The results will help you decide how hot, cold, wet, or windy it might be!

Date:

Astronomy

Dec. 17, 2012 Rise Set
Actual Time 7:14 AM CST 4:53 PM CST
Civil Twilight 6:45 AM CST 5:22 PM CST
Nautical Twilight 6:13 AM CST 5:54 PM CST
Astronomical Twilight 5:41 AM CST 6:26 PM CST
Moon 10:29 AM CST (12/17) 10:08 PM CST (12/17)
Length of Visible Light 10h 36m
Length of Day
9h 38m
Waxing Crescent, 25% of the Moon is Illuminated
Dec 17
Waxing Crescent
Dec 19
First Quarter
Dec 28
Full
Jan 4
Last Quarter
Jan 11
New

Hourly Weather History & Observations

Time (CST) Temp. Windchill Dew Point Humidity Pressure Visibility Wind Dir Wind Speed Gust Speed Precip Events Conditions
12:53 AM 39.0 °F 36.8 °F 36.0 °F 89% 29.69 in 10.0 mi NNE 3.5 mph - N/A   Clear
1:53 AM 39.9 °F - 36.0 °F 86% 29.70 in 10.0 mi Calm Calm - N/A   Clear
2:53 AM 39.0 °F 34.8 °F 36.0 °F 89% 29.67 in 10.0 mi North 5.8 mph - N/A   Clear
3:53 AM 39.9 °F 36.7 °F 37.0 °F 89% 29.67 in 9.0 mi North 4.6 mph - N/A   Clear
4:53 AM 39.0 °F - 36.0 °F 89% 29.66 in 5.0 mi Calm Calm - N/A   Clear
5:23 AM 37.4 °F 33.8 °F 35.6 °F 93% 29.65 in 4.0 mi North 4.6 mph - N/A   Scattered Clouds
5:29 AM 37.4 °F 32.8 °F 35.6 °F 93% 29.65 in 2.5 mi North 5.8 mph - N/A   Mostly Cloudy
5:41 AM 37.4 °F 32.8 °F 37.4 °F 100% 29.65 in 1.5 mi North 5.8 mph - N/A   Overcast
5:46 AM 37.4 °F 34.9 °F 37.4 °F 100% 29.66 in 0.8 mi North 3.5 mph - N/A   Overcast
5:53 AM 37.9 °F 35.5 °F 37.0 °F 97% 29.67 in 0.5 mi NNW 3.5 mph - N/A Fog Fog
6:53 AM 37.9 °F 31.5 °F 37.0 °F 97% 29.70 in 0.5 mi NW 9.2 mph - N/A Fog Fog
7:53 AM 37.9 °F 30.9 °F 37.0 °F 97% 29.71 in 0.5 mi NW 10.4 mph - N/A Fog Fog
8:15 AM 39.2 °F 33.6 °F 37.4 °F 93% 29.70 in 1.2 mi NW 8.1 mph - N/A   Overcast
8:53 AM 39.0 °F 32.3 °F 37.9 °F 96% 29.73 in 2.0 mi NW 10.4 mph - N/A   Overcast
9:12 AM 39.2 °F 32.5 °F 37.4 °F 93% 29.71 in 4.0 mi WNW 10.4 mph 18.4 mph N/A   Overcast
9:38 AM 39.2 °F 33.6 °F 37.4 °F 93% 29.73 in 5.0 mi NW 8.1 mph - N/A   Overcast
9:53 AM 41.0 °F 34.7 °F 37.0 °F 86% 29.73 in 7.0 mi NW 10.4 mph - N/A   Overcast
10:06 AM 41.0 °F 35.8 °F 37.4 °F 87% 29.72 in 8.0 mi NW 8.1 mph - N/A   Overcast
10:49 AM 42.8 °F 36.6 °F 37.4 °F 81% 29.72 in 9.0 mi WNW 11.5 mph 16.1 mph N/A   Overcast
10:53 AM 42.1 °F 36.1 °F 37.0 °F 82% 29.73 in 9.0 mi WNW 10.4 mph 16.1 mph N/A   Overcast
11:53 AM 43.0 °F 36.4 °F 36.0 °F 76% 29.73 in 10.0 mi WNW 12.7 mph 18.4 mph N/A   Overcast
12:15 PM 44.6 °F 40.2 °F 37.4 °F 76% 29.71 in 10.0 mi NW 8.1 mph 16.1 mph N/A   Overcast
12:53 PM 45.0 °F 38.9 °F 36.0 °F 71% 29.72 in 10.0 mi WNW 12.7 mph - N/A   Overcast
1:53 PM 46.0 °F 40.2 °F 36.0 °F 68% 29.72 in 10.0 mi NW 12.7 mph 17.3 mph N/A   Overcast
2:53 PM 44.1 °F 37.7 °F 35.1 °F 71% 29.73 in 10.0 mi WNW 12.7 mph - N/A   Mostly Cloudy
3:02 PM 44.6 °F 38.8 °F 35.6 °F 71% 29.72 in 10.0 mi WNW 11.5 mph - N/A   Scattered Clouds
3:13 PM 44.6 °F 38.8 °F 35.6 °F 71% 29.72 in 10.0 mi NW 11.5 mph - N/A   Mostly Cloudy
3:53 PM 43.0 °F 37.2 °F 34.0 °F 71% 29.75 in 10.0 mi WNW 10.4 mph - N/A   Overcast
6:53 PM 35.1 °F 30.1 °F 30.9 °F 85% 29.80 in 7.0 mi WNW 5.8 mph - N/A   Clear
7:53 PM 34.0 °F 29.8 °F 30.9 °F 89% 29.81 in 6.0 mi West 4.6 mph - N/A   Clear
8:53 PM 33.1 °F 30.0 °F 30.9 °F 92% 29.83 in 5.0 mi West 3.5 mph - N/A   Clear
9:53 PM 32.0 °F 26.4 °F 30.0 °F 92% 29.84 in 4.0 mi West 5.8 mph - N/A   Clear
10:53 PM 30.9 °F 27.5 °F 28.9 °F 92% 29.85 in 3.0 mi West 3.5 mph - N/A   Clear
11:53 PM 30.0 °F - 26.1 °F 85% 29.84 in 3.0 mi Calm Calm - N/A   Clear